[[{"header":{"parameterUnit":"m.s-1","parameterCategory":1,"la1":30.2991,"la2":30.254,"lo1":-89.0895,"lo2":-89.0444,"dy":0.0017,"dx":0.0017,"nx":28,"ny":28,"refTime":"2023-07-31T21:00:00:Z","depth":0,"parameterNumber":2,"parameterNumberName":"U-component_of_WINDS"},"data":[0,0,0,0,0,0,0,0,0,0,0,0,0,0,0,0,0,0,0,0,0,0,0,0,0,0,0,0,0,0,0,0,0,0,0,0,0,0,0,0,0,0,0,0,0,0,0,0,0,0,0,0,0,0,0,0,0,0,1.0882,1.0884,0,1.1028,1.103,1.1032,1.1055,1.1054,1.1053,1.1051,1.1206,1.1212,1.1217,0,0,0,0,0,0,0,0,0,0,0,0,0,1.0626,1.0631,1.0882,1.0884,1.0886,1.1028,1.103,1.1032,1.1055,1.1054,1.1052,1.1051,1.1205,1.1211,1.1217,0,0,0,0,0,0,0,0,0,0,0,0,0,1.0751,1.0632,1.0882,1.0914,1.0919,1.1028,1.103,1.1033,1.1056,1.1054,1.1052,1.105,1.1203,1.121,1.1218,1.1307,0,0,1.1243,1.1246,0,0,0,0,0,0,0,0,1.0744,1.0761,1.0908,1.0912,1.0917,1.1021,1.0997,1.1125,1.1056,1.1004,1.1051,1.1049,1.1147,1.1159,1.1191,1.1314,1.132,1.1243,1.1248,1.1252,1.1254,0,0,0,0,0,0,0,1.0736,1.0755,1.094,1.091,1.0916,1.0923,1.0938,1.1021,1.1085,1.1008,1.101,1.1027,1.1149,1.1183,1.1195,1.1323,1.1243,1.125,1.1255,1.1258,1.1523,1.1525,0,0,0,0,0,0,1.072,1.0747,1.0935,1.0944,1.0824,1.0929,1.0946,1.099,1.1084,1.1096,1.1029,1.1028,1.1171,1.1186,1.1201,1.1308,1.1252,1.1259,1.1264,1.1521,1.1524,1.1526,0,0,0,0,0,0,1.0715,1.0737,1.093,1.0846,1.0871,1.0935,1.0984,1.0994,1.1028,1.1099,1.1111,1.1052,1.117,1.1189,1.1279,1.1314,1.1263,1.127,1.1518,1.1522,1.1525,1.1526,0,0,0,0,0,0,1.0707,1.0735,1.0768,1.0847,1.0876,1.1005,1.0986,1.0998,1.1041,1.1041,1.1124,1.1136,1.117,1.1267,1.1287,1.1324,1.1276,1.1515,1.152,1.1524,1.1523,1.1529,1.1534,0,0,0,0,0,1.0698,1.0764,1.077,1.0792,1.0919,1.1007,1.1023,1.106,1.1044,1.1079,1.1124,1.1133,1.1307,1.1276,1.1299,1.1339,1.1513,1.1519,1.1523,1.152,1.1527,1.1533,0,0,0,0,0,0,1.069,1.0775,1.0782,1.0876,1.0933,1.101,1.1055,1.1066,1.1131,1.1129,1.1173,1.1191,1.1278,1.1318,1.1282,1.1428,1.1409,1.1419,1.1399,1.1406,1.1412,1.14,1.1283,0,0,0,0,0,1.0699,1.0762,1.0833,1.0909,1.0937,1.0991,1.1031,1.1053,1.1116,1.1141,1.1193,1.1254,1.1322,1.1367,1.1434,1.1529,1.1546,1.1567,1.1573,1.1577,1.1585,1.1636,1.1646,1.1543,1.1543,1.1542,0,0,1.0718,1.0773,1.081,1.0909,1.0956,1.1021,1.1012,1.1081,1.113,1.1152,1.1239,1.1279,1.1351,1.1443,1.1486,1.1478,1.1617,1.1583,1.1586,1.1592,1.1642,1.1652,1.1661,1.1546,1.1545,1.1545,0,0,1.0786,1.0834,1.0901,1.0948,1.1019,1.1054,1.107,1.1145,1.1172,1.126,1.1277,1.1336,1.1454,1.1503,1.1544,1.1628,1.1639,1.1649,1.1677,1.1727,1.1735,1.1742,1.1771,1.1781,1.1657,1.1657,1.1657,0,1.0802,1.0899,1.0935,1.1003,1.1045,1.1066,1.1134,1.1179,1.1269,1.1298,1.1288,1.1434,1.1484,1.1587,1.1607,1.1639,1.1659,1.164,1.173,1.1738,1.1746,1.1774,1.1785,1.1657,1.1657,1.1657,1.1657,0,1.0914,1.0981,1.1027,1.111,1.1158,1.1226,1.1273,1.1317,1.1335,1.1371,1.146,1.152,1.1598,1.1625,1.1645,1.173,1.1723,1.1721,1.1703,1.1755,1.1782,1.1794,1.1658,1.1658,1.1658,1.1658,0,0,1.0982,1.1082,1.1099,1.1136,1.1215,1.1268,1.1337,1.1412,1.1448,1.151,1.1568,1.1666,1.1663,1.1709,1.1735,1.1778,1.1839,1.1771,1.1774,1.1781,1.1936,1.1936,1.1948,1.1847,1.1849,1.1851,1.193,0,1.1058,1.1179,1.1212,1.1315,1.1377,1.1397,1.1457,1.1512,1.1548,1.1606,1.1646,1.1714,1.1707,1.1734,1.1778,1.1823,1.1871,1.1818,1.1902,1.1905,1.1882,1.1962,1.1963,1.2034,1.1941,1.1942,1.1944,0,1.1163,1.1224,1.1332,1.1401,1.1429,1.1482,1.1552,1.1607,1.167,1.1693,1.1743,1.1764,1.1836,1.1814,1.1915,1.1877,1.1914,1.1941,1.1944,1.1953,1.1927,1.1972,1.2058,1.2068,1.1961,1.196,1.1958,0,1.1199,1.1309,1.1387,1.1419,1.1502,1.1538,1.1575,1.1636,1.1678,1.174,1.1768,1.1838,1.1877,1.1931,1.197,1.195,1.2067,1.2048,1.2088,1.2087,1.2111,1.2109,1.2203,1.2136,1.2136,1.2136,1.2136,0,1.128,1.1346,1.1404,1.1452,1.1526,1.1564,1.1636,1.1674,1.1727,1.1784,1.1806,1.1859,1.1908,1.1967,1.1999,1.2076,1.2094,1.2114,1.2122,1.2112,1.2109,1.2136,1.2131,1.2139,1.2138,1.2138,1.2137,0,1.1333,1.1375,1.1462,1.1533,1.1552,1.1603,1.1664,1.1712,1.1747,1.1818,1.1837,1.1893,1.1964,1.2008,1.2099,1.212,1.2205,1.2211,1.2183,1.2186,1.2222,1.2218,1.2336,1.2353,1.2276,1.2277,1.2277,0,1.1382,1.1432,1.1508,1.1546,1.1582,1.1644,1.1686,1.1726,1.1769,1.1844,1.1882,1.1954,1.2013,1.2125,1.2175,1.2244,1.2251,1.2288,1.2262,1.2249,1.225,1.2246,1.2251,1.2292,1.2293,1.2293,1.2294,0,1.1462,1.148,1.154,1.1606,1.1655,1.171,1.1765,1.1795,1.1844,1.1892,1.1963,1.2009,1.2099,1.217,1.2243,1.2282,1.2296,1.2301,1.2314,1.2304,1.2284,1.2294,1.2193,1.2299,1.2298,1.2298,1.2297,1.2297,1.1514,1.1559,1.1618,1.1683,1.1728,1.1778,1.1826,1.1866,1.1926,1.2001,1.2022,1.2096,1.2157,1.2256,1.2296,1.2355,1.235,1.2369,1.2373,1.2377,1.2376,1.2275,1.2369,1.2369,1.2368,1.2368,1.2368,0,1.1594,1.1633,1.1693,1.1767,1.1818,1.1825,1.1886,1.1928,1.1993,1.2048,1.2105,1.2186,1.2254,1.2308,1.2378,1.2415,1.2423,1.2432,1.2429,1.2437,1.2378,1.2359,1.2424,1.2424,1.2424,1.2424,1.2424,1.2424,1.1642,1.1718,1.1742,1.184,1.1879,1.195,1.1984,1.203,1.2074,1.2163,1.2219,1.2253,1.2308,1.2381,1.2444,1.2458,1.2483,1.249,1.2505,1.2448,1.2442,1.2436,1.2419,1.2495,1.2495,1.256,1.2561,1.2561]},{"header":{"parameterUnit":"m.s-1","parameterCategory":1,"la1":30.2991,"la2":30.254,"lo1":-89.0895,"lo2":-89.0444,"dy":0.0017,"dx":0.0017,"nx":28,"ny":28,"refTime":"2023-07-31T21:00:00:Z","depth":0,"parameterNumber":3,"parameterNumberName":"V-component_of_WINDS"},"data":[0,0,0,0,0,0,0,0,0,0,0,0,0,0,0,0,0,0,0,0,0,0,0,0,0,0,0,0,0,0,0,0,0,0,0,0,0,0,0,0,0,0,0,0,0,0,0,0,0,0,0,0,0,0,0,0,0,0,3.8985,3.8984,0,3.8943,3.8943,3.8942,3.8894,3.8893,3.8893,3.8892,3.8846,3.8846,3.8845,0,0,0,0,0,0,0,0,0,0,0,0,0,3.9017,3.9017,3.8985,3.8984,3.8984,3.8943,3.8943,3.8942,3.8894,3.8893,3.8892,3.8892,3.8846,3.8846,3.8845,0,0,0,0,0,0,0,0,0,0,0,0,0,3.8992,3.9017,3.8985,3.8955,3.8952,3.8943,3.8943,3.8942,3.8894,3.8893,3.8892,3.8891,3.8846,3.8846,3.8845,3.8861,0,0,3.8842,3.8842,0,0,0,0,0,0,0,0,3.8994,3.8991,3.896,3.8957,3.8954,3.8923,3.8937,3.8915,3.8895,3.8916,3.8892,3.8891,3.8872,3.8869,3.8864,3.8859,3.8857,3.8842,3.8842,3.8841,3.8841,0,0,0,0,0,0,0,3.8995,3.8992,3.8968,3.896,3.8956,3.8942,3.8937,3.8933,3.8901,3.8914,3.8911,3.8907,3.887,3.8865,3.8862,3.8856,3.8842,3.8841,3.8841,3.8841,3.8856,3.8857,0,0,0,0,0,0,3.9002,3.8994,3.8969,3.8967,3.8971,3.8942,3.8937,3.8934,3.8901,3.8895,3.8907,3.8904,3.8867,3.8863,3.886,3.8873,3.8841,3.8841,3.884,3.8856,3.8857,3.8858,0,0,0,0,0,0,3.9003,3.9001,3.8971,3.898,3.8975,3.8943,3.894,3.8933,3.8928,3.8895,3.8889,3.8908,3.8866,3.8862,3.886,3.8871,3.884,3.8839,3.8854,3.8856,3.8857,3.8901,0,0,0,0,0,0,3.9004,3.9001,3.9009,3.898,3.8975,3.8974,3.894,3.8933,3.8927,3.8922,3.8894,3.8888,3.8864,3.8862,3.8859,3.8869,3.8839,3.8853,3.8855,3.8857,3.8899,3.8904,3.8909,0,0,0,0,0,3.9006,3.9023,3.9009,3.9007,3.8984,3.8975,3.8971,3.8944,3.8928,3.8934,3.8912,3.8889,3.8871,3.8862,3.8859,3.8869,3.8852,3.8855,3.8857,3.8897,3.8903,3.8909,0,0,0,0,0,0,3.9054,3.9019,3.9003,3.9013,3.8997,3.8967,3.8973,3.8953,3.894,3.8937,3.8903,3.8896,3.8898,3.8883,3.8874,3.888,3.8858,3.8859,3.8889,3.8895,3.89,3.8902,3.8838,0,0,0,0,0,3.9066,3.9063,3.9032,3.9043,3.9036,3.9006,3.9001,3.8981,3.8963,3.8956,3.8935,3.8917,3.8906,3.89,3.8889,3.8897,3.8887,3.8901,3.8906,3.8911,3.8912,3.891,3.8914,3.8864,3.8864,3.8864,0,0,3.909,3.907,3.9071,3.9052,3.9038,3.9033,3.9001,3.8998,3.8993,3.8955,3.8952,3.8935,3.8913,3.8915,3.8914,3.8902,3.8923,3.8913,3.8917,3.8916,3.8912,3.8917,3.8921,3.8866,3.8866,3.8865,0,0,3.9131,3.9118,3.9123,3.9108,3.9087,3.9066,3.9067,3.9039,3.9027,3.9023,3.8993,3.8986,3.897,3.8953,3.8943,3.8974,3.895,3.8971,3.8996,3.8995,3.8998,3.9002,3.9009,3.9012,3.8972,3.8973,3.8973,0,3.9163,3.9156,3.9128,3.9126,3.9117,3.9082,3.9085,3.9073,3.9048,3.9041,3.9029,3.9005,3.8988,3.8983,3.899,3.8984,3.8981,3.8973,3.9001,3.9003,3.9006,3.9012,3.9016,3.8975,3.8975,3.8974,3.8974,0,3.9195,3.919,3.9197,3.9173,3.9165,3.9166,3.9136,3.913,3.911,3.909,3.9084,3.9062,3.9043,3.9041,3.9023,3.9032,3.9025,3.9007,3.8984,3.9014,3.9019,3.9021,3.8978,3.8978,3.8977,3.8976,0,0,3.9265,3.9224,3.9227,3.9214,3.9186,3.9181,3.9178,3.9161,3.9155,3.9139,3.9133,3.9118,3.91,3.9088,3.9067,3.9066,3.9086,3.9047,3.9046,3.9053,3.9091,3.9103,3.9107,3.9072,3.9072,3.9072,3.9092,0,3.9298,3.9293,3.9266,3.9267,3.926,3.9226,3.9223,3.9204,3.9184,3.9174,3.9152,3.914,3.9119,3.9111,3.9109,3.9085,3.9093,3.9083,3.9063,3.9063,3.9068,3.911,3.9124,3.9144,3.9094,3.9095,3.9095,0,3.9336,3.9321,3.9322,3.929,3.9286,3.9285,3.9264,3.9256,3.9232,3.9217,3.9203,3.9178,3.917,3.915,3.9136,3.913,3.912,3.9106,3.9106,3.9101,3.9079,3.9104,3.915,3.9152,3.9099,3.9098,3.9098,0,3.9382,3.9363,3.9359,3.935,3.9314,3.9313,3.9298,3.9273,3.9263,3.9245,3.9237,3.9218,3.9207,3.9191,3.9161,3.915,3.9149,3.9127,3.9134,3.9135,3.9134,3.9134,3.9176,3.9132,3.9132,3.9132,3.9132,0,3.942,3.9421,3.9379,3.9377,3.9375,3.9344,3.9342,3.9324,3.9301,3.9293,3.9262,3.9254,3.9216,3.9203,3.9179,3.9169,3.9165,3.9151,3.9144,3.9152,3.9154,3.9144,3.9141,3.9133,3.9133,3.9133,3.9132,0,3.9471,3.9443,3.9437,3.9403,3.9394,3.9395,3.9364,3.9359,3.9338,3.9327,3.9322,3.9287,3.9269,3.9238,3.9212,3.9195,3.9189,3.918,3.9198,3.9193,3.92,3.9199,3.9236,3.9237,3.9195,3.9195,3.9196,0,3.9495,3.9495,3.9461,3.9453,3.9439,3.9428,3.9417,3.9384,3.9374,3.9345,3.9342,3.9323,3.9305,3.9278,3.9249,3.9227,3.9215,3.9229,3.9211,3.9218,3.9211,3.9211,3.9209,3.9233,3.9233,3.9234,3.9234,0,3.954,3.9526,3.9513,3.9493,3.9481,3.9464,3.9445,3.944,3.9403,3.9392,3.9374,3.9361,3.9333,3.9312,3.9286,3.9268,3.9243,3.924,3.924,3.9247,3.9257,3.9248,3.9206,3.9239,3.9239,3.9238,3.9238,3.9238,3.9576,3.9573,3.9547,3.9532,3.9515,3.9497,3.949,3.9467,3.9452,3.9427,3.9408,3.9391,3.9363,3.9326,3.9309,3.9293,3.9282,3.9282,3.9282,3.9282,3.9284,3.9261,3.9288,3.9288,3.9288,3.9288,3.9287,0,3.9616,3.9598,3.9585,3.9559,3.9546,3.9526,3.9504,3.9493,3.9479,3.9456,3.9439,3.9416,3.9396,3.9364,3.934,3.9333,3.9321,3.9327,3.9326,3.9322,3.9297,3.9298,3.9337,3.9337,3.9337,3.9337,3.9337,3.9337,3.9636,3.9628,3.9611,3.9592,3.9574,3.9557,3.9545,3.9528,3.9509,3.9486,3.9469,3.9449,3.9421,3.9394,3.9373,3.9364,3.9355,3.9365,3.9352,3.9329,3.9324,3.932,3.932,3.9364,3.9364,3.9378,3.9378,3.9379]}]]